Farmingdale, NY

9:28 AM EST on February 12, 2016 (GMT -0500)
Republic

Weather History for KFRG - November, 2012

Change the Weather History Date:

Tuesday, November 20, 2012

  Actual Average Record
Temperature  
Mean Temperature 43 °F -  
Max Temperature 50 °F 50 °F 63 °F (2011)
Min Temperature 36 °F 35 °F 26 °F (2000)
Degree Days  
Heating Degree Days 22    
Moisture  
Dew Point 35 °F    
Average Humidity 79    
Maximum Humidity 97    
Minimum Humidity 56    
Precipitation  
Precipitation 0.00 in - - ()
Sea Level Pressure  
Sea Level Pressure 30.17 in    
Wind  
Wind Speed 5 mph (NNE)    
Max Wind Speed 12 mph    
Max Gust Speed -    
Visibility 10 miles    
Events      
Averages and records for this station are not official NWS values.
T = Trace of Precipitation, MM = Missing Value Source: NWS Daily Summary

Daily Weather History Graph

Daily Weather History Graph

Search for Another Location

Airport or City:

Trip Planner

Search our weather history database for the weather conditions in past years. The results will help you decide how hot, cold, wet, or windy it might be!

Date:

Astronomy

Nov. 20, 2012 Rise Set
Actual Time 6:46 AM EST 4:31 PM EST
Civil Twilight 6:17 AM EST 5:01 PM EST
Nautical Twilight 5:43 AM EST 5:34 PM EST
Astronomical Twilight 5:11 AM EST 6:07 PM EST
Moon 12:18 PM EST (11/20) No Moon Set
Length of Visible Light 10h 44m
Length of Day
9h 44m
Waxing Crescent, 51% of the Moon is Illuminated
Nov 20
Waxing Crescent
Nov 28
Full
Dec 6
Last Quarter
Dec 13
New
Dec 20
First Quarter

Hourly Weather History & Observations

Time (EST) Temp. Windchill Dew Point Humidity Pressure Visibility Wind Dir Wind Speed Gust Speed Precip Events Conditions
12:53 AM 37.0 °F 32.4 °F 33.1 °F 86% 30.23 in 10.0 mi NNE 5.8 mph - N/A   Clear
1:53 AM 37.0 °F 34.5 °F 34.0 °F 89% 30.23 in 10.0 mi North 3.5 mph - N/A   Clear
2:53 AM 36.0 °F 31.1 °F 34.0 °F 93% 30.21 in 10.0 mi North 5.8 mph - N/A   Clear
3:53 AM 36.0 °F 33.3 °F 35.1 °F 97% 30.19 in 10.0 mi NNE 3.5 mph - N/A   Clear
4:53 AM 37.9 °F 34.4 °F 35.1 °F 89% 30.20 in 10.0 mi North 4.6 mph - N/A   Clear
5:53 AM 36.0 °F 32.1 °F 34.0 °F 93% 30.19 in 8.0 mi NNE 4.6 mph - N/A   Clear
6:53 AM 36.0 °F 29.6 °F 34.0 °F 93% 30.19 in 8.0 mi NNE 8.1 mph - N/A   Clear
7:53 AM 39.9 °F 37.8 °F 35.1 °F 83% 30.20 in 10.0 mi North 3.5 mph - N/A   Clear
8:53 AM 44.1 °F 40.8 °F 37.0 °F 76% 30.19 in 10.0 mi NE 5.8 mph - N/A   Clear
9:53 AM 45.0 °F 39.3 °F 35.1 °F 68% 30.19 in 10.0 mi NNE 11.5 mph - N/A   Clear
10:53 AM 46.0 °F 41.0 °F 35.1 °F 66% 30.17 in 10.0 mi NNE 10.4 mph - N/A   Clear
11:53 AM 46.9 °F - 35.1 °F 63% 30.15 in 10.0 mi North 6.9 mph - N/A   Clear
12:53 PM 50.0 °F - 35.1 °F 57% 30.14 in 10.0 mi NE 8.1 mph - N/A   Clear
1:53 PM 48.9 °F - 34.0 °F 56% 30.12 in 10.0 mi NNE 8.1 mph - N/A   Clear
2:53 PM 48.0 °F - 35.1 °F 61% 30.13 in 10.0 mi NNE 6.9 mph - N/A   Clear
3:53 PM 46.0 °F 43.9 °F 35.1 °F 66% 30.14 in 10.0 mi NE 4.6 mph - N/A   Clear
4:53 PM 44.1 °F 40.8 °F 37.0 °F 76% 30.14 in 10.0 mi NE 5.8 mph - N/A   Clear
5:53 PM 43.0 °F 41.3 °F 37.0 °F 80% 30.14 in 10.0 mi NE 3.5 mph - N/A   Clear
6:53 PM 43.0 °F - 37.0 °F 80% 30.14 in 10.0 mi Calm Calm - N/A   Clear
7:53 PM 43.0 °F - 37.0 °F 80% 30.14 in 10.0 mi Calm Calm - N/A   Clear
8:53 PM 42.1 °F 40.2 °F 37.0 °F 82% 30.15 in 10.0 mi NNE 3.5 mph - N/A   Clear
9:53 PM 41.0 °F - 37.0 °F 86% 30.15 in 10.0 mi Calm Calm - N/A   Clear
10:53 PM 41.0 °F - 37.0 °F 86% 30.16 in 10.0 mi Calm Calm - N/A   Clear
11:53 PM 41.0 °F - 36.0 °F 82% 30.15 in 10.0 mi Calm Calm - N/A   Clear